#timestamp,LO_Frequency,Hit,StdDev 
1513062015.4,286047001.2,N
1513062035.3,286047003.6,N
1513062055.1,286047007.5,Y
1513062056.0,286047007.5,P
1513062075.8,286047007.5,N
1513062095.7,286047009.2,P
1513062115.5,286047004.9,N
1513062135.4,286047008.4,Y
1513062155.2,286047001.0,P
1513062175.0,286046995.0,N
1513062175.9,286046995.0,N
1513062195.8,286046993.6,N
1513062215.6,286046994.1,N
1513062235.4,286046994.7,N
1513062255.3,286046991.8,N
1513062275.1,286046996.3,N
1513062295.9,286046993.9,N
1513062315.7,286046992.1,N
1513062335.5,286046994.8,N
1513062355.4,286046991.9,N
1513062375.2,286046990.2,N
1513062395.1,286046992.7,N
1513062396.0,286046992.7,N
1513062415.8,286046992.6,N
1513062435.6,286046992.5,N
1513062455.5,286046992.6,N
1513062475.3,286046992.0,N
1513062495.1,286046991.6,N
1513062515.9,286046992.2,N
1513062535.7,286046992.8,N
1513062555.6,286046990.3,N
1513062575.4,286046990.1,N
1513062595.2,286046994.3,N
1513062615.1,286046996.0,N
1513062616.0,286046996.0,N
1513062635.8,286046995.6,N
1513062655.7,286046995.1,N
1513062675.5,286046993.8,N
1513062695.3,286046992.5,Y
1513062715.2,286046996.5,P
1513062735.0,286046996.6,N
1513062735.9,286046996.6,N
1513062755.8,286046998.6,N
1513062775.6,286047000.6,N
1513062795.4,286047002.5,N
1513062815.3,286047002.3,N
1513062835.1,286047000.6,N
1513062855.8,286047002.7,N
1513062875.7,286047002.6,N
1513062895.5,286047002.5,N
1513062915.4,286047002.5,N
1513062935.2,286047000.2,N
1513062955.0,286047004.1,N
1513062955.9,286047004.1,N
1513062975.8,286047002.9,N
1513062995.6,286047005.8,N
1513063015.5,286047001.4,N
1513063035.3,286046996.6,N
1513063055.1,286046995.8,N
1513063075.9,286046997.3,N
1513063095.7,286046999.1,N
1513063115.5,286046996.6,N
1513063135.4,286046997.3,N
1513063155.2,286047001.0,N
1513063175.1,286047000.8,N
1513063176.0,286047000.8,N
1513063195.8,286047000.9,N
1513063215.6,286047000.8,N
1513063235.5,286047000.3,N
1513063255.3,286047002.7,N
1513063275.1,286047001.6,N
1513063295.9,286047002.3,N
1513063315.7,286047002.5,N
1513063335.6,286047000.1,N
1513063355.4,286047000.3,N
1513063375.2,286047002.2,N
1513063395.1,286047002.4,N
1513063396.0,286047002.4,N
1513063415.8,286046999.7,N
1513063435.7,286046999.8,N
1513063455.5,286047001.9,N
1513063475.3,286047003.9,N
1513063495.2,286046998.8,N
1513063515.0,286046996.3,N
1513063515.9,286046996.3,N
1513063535.7,286046997.5,N
1513063555.6,286046997.3,N
1513063575.4,286046996.7,N
1513063595.3,286046998.4,N
1513063615.1,286047000.1,N
1513063616.0,286047000.1,N
1513063635.8,286047000.6,N
1513063655.7,286046996.7,N
1513063675.5,286046997.0,N
1513063695.4,286046998.7,N
1513063715.2,286047000.1,N
1513063735.0,286047002.3,N
1513063735.9,286047002.3,N
1513063755.8,286047001.7,N
1513063775.6,286047002.2,N
1513063795.5,286046999.8,N
1513063815.3,286047001.0,N
1513063835.1,286046999.6,N
1513063855.9,286047002.4,N
1513063875.7,286047000.0,N
1513063895.5,286047002.8,N
1513063915.4,286047001.9,N
1513063935.2,286047002.6,N
1513063955.1,286047002.1,N
1513063956.0,286047002.1,N
1513063975.8,286047001.9,N
1513063995.6,286046999.2,N
1513064015.5,286046996.3,N
1513064035.3,286046995.1,N
1513064055.2,286046995.9,N
1513064075.9,286046994.2,N
1513064095.7,286046996.2,N
1513064115.6,286046993.5,N
1513064135.4,286046998.0,N
1513064155.3,286046997.9,N
1513064175.1,286046995.2,N
1513064176.0,286046995.2,N
1513064195.8,286046995.0,N
1513064215.7,286046993.7,N
1513064235.5,286046995.9,N
1513064255.3,286046995.4,N
1513064275.2,286046995.9,N
1513064295.0,286046993.8,N
1513064295.9,286046993.8,N
1513064315.8,286046995.3,N
1513064335.6,286046996.0,N
1513064355.4,286046992.0,N
1513064375.3,286046994.7,N
1513064395.1,286046992.1,N
1513064415.9,286046993.9,N
1513064435.7,286046994.0,N
1513064455.5,286046995.7,N
1513064475.4,286046997.2,N
1513064495.2,286046997.6,N
1513064515.1,286046993.8,N
1513064516.0,286046993.8,Y
1513064535.8,286046996.5,P
1513064555.6,286046999.9,N
1513064575.5,286047001.2,N
1513064595.3,286046997.6,N
1513064615.1,286046997.8,N
1513064635.9,286047000.8,N
1513064655.7,286047000.3,N
1513064675.6,286047000.3,N
1513064695.4,286047002.2,N
1513064715.2,286047005.7,N
1513064735.1,286047003.9,N
1513064736.0,286047003.9,N
1513064755.8,286046998.5,N
1513064775.7,286047002.8,N
1513064795.5,286047001.7,N
1513064815.3,286047002.9,N
1513064835.2,286047004.4,N
1513064855.0,286047003.7,N
1513064855.9,286047003.7,N
1513064875.8,286047000.2,N
1513064895.6,286047001.0,N
1513064915.4,286047000.2,N
1513064935.3,286047000.1,N
1513064955.1,286047002.5,N
1513064975.8,286047001.5,N
1513064995.7,286047003.7,N
1513065015.5,286047003.7,N
1513065035.4,286047003.7,N
1513065055.2,286047003.0,N
1513065075.0,286047003.2,N
1513065075.9,286047003.2,N
1513065095.8,286047003.0,N
1513065115.6,286047003.7,N
1513065135.5,286047003.8,N
1513065155.3,286046998.2,N
1513065175.1,286046998.6,N
1513065195.9,286047001.1,N
1513065215.7,286047000.9,N
1513065235.6,286047002.3,N
1513065255.4,286047000.9,N
1513065275.2,286046998.6,N
1513065295.1,286046999.1,N
1513065296.0,286046999.1,N
1513065315.8,286046995.0,N
1513065335.6,286046993.5,N
1513065355.5,286046993.8,N
1513065375.3,286046993.8,N
1513065395.2,286046997.6,N
1513065415.9,286046998.9,N
1513065435.7,286046998.2,N
1513065455.6,286047000.3,N
1513065475.4,286047000.1,N
1513065495.3,286047002.0,N
1513065515.1,286047003.1,N
1513065535.8,286047004.4,N
1513065555.7,286047003.8,N
1513065575.5,286047004.2,N
1513065595.4,286047003.5,N
